Regional Weather Roundup
Issued by NWS

Home | Current Version | Previous Version | Graphics & Text | Print | Product List | Glossary On
Versions: 1 2 3 4 5 6 7 8 9 10 11 12 13 14 15 16 17 18 19 20 21 22 23 24 25 26 27
000
ASUS45 KPSR 291710
RWRAZ

ARIZONA HOURLY REGIONAL WEATHER ROUNDUP
NATIONAL WEATHER SERVICE PHOENIX AZ
1000 AM MST WED MAR 29 2017

NOTE: FAIR INDICATES FEW OR NO CLOUDS BELOW 12,000 FEET WITH NO
SIGNIFICANT WEATHER AND/OR OBSTRUCTIONS TO VISIBILITY.

AZZ001>003-036-291800-
NORTHWEST ARIZONA

CITY           SKY/WX    TMP DP  RH WIND       PRES   REMARKS
BULLHEAD CITY  MOSUNNY   70  27  19 N28G35    30.10S
KINGMAN        SUNNY     58  10  15 NE5       30.17R
$$

AZZ004>008-015-016-018-291800-
NORTH CENTRAL ARIZONA

CITY           SKY/WX    TMP DP  RH WIND       PRES   REMARKS
GRAND CANYON   SUNNY     50  20  30 N8        30.20R
WILLIAMS       SUNNY     52  19  28 NE16G22   30.18R
PRESCOTT       SUNNY     54  27  35 NW9       30.15R
FLAGSTAFF      SUNNY     48  20  32 NE26G36   30.15R
PAYSON         SUNNY     55  25  30 NE17G28   30.13S
PAGE           SUNNY     56  22  26 NW6       30.16S
$$

AZZ009>014-017-291800-
NORTHEAST ARIZONA

CITY           SKY/WX    TMP DP  RH WIND       PRES   REMARKS
WINSLOW        SUNNY     55  26  32 NW9G20    30.15R
SAINT JOHNS    SUNNY     48  33  56 NW16      30.10R
WINDOW ROCK    SUNNY     50  29  44 N10       30.08R
SHOW LOW       SUNNY     45  25  45 N17       30.14R
$$

AZZ023-291800-
GREATER PHOENIX AREA

CITY           SKY/WX    TMP DP  RH WIND       PRES   REMARKS
PHOENIX        MOSUNNY   70  29  21 VRB5      30.00S
BUCKEYE        SUNNY     72  27  18 CALM      30.03S
GLENDALE       SUNNY     72  32  23 VRB6      30.03S
LUKE AFB       SUNNY     73  29  19 NW9       30.00S
DEER VALLEY    SUNNY     73  27  18 NW8       30.00R
SCOTTSDALE     SUNNY     72  29  20 VRB3      30.02R
MESA-FALCON    SUNNY    N/A N/A N/A W6        29.98S
MESA-GATEWAY   SUNNY     66  30  26 W6        30.02S
CHANDLER       SUNNY     70  28  21 NW8       30.01S
$$

AZZ027-028-291800-
SOUTHWEST MARICOPA COUNTY AND PINAL COUNTY

CITY           SKY/WX    TMP DP  RH WIND       PRES   REMARKS
CASA GRANDE    NOT AVBL
GILA BEND      SUNNY     69  23  18 NE5       30.03R
$$

AZZ503-504-507>509-291800-
SOUTHEAST ARIZONA

CITY           SKY/WX    TMP DP  RH WIND       PRES   REMARKS
TUCSON         SUNNY     64  26  23 W5        30.04S
DAVIS-MONTHAN  SUNNY     63  25  23 W5        30.03S
RYAN FIELD     SUNNY     64  27  24 NW6       30.04S
NOGALES        SUNNY     64  25  22 W6        30.04S
SIERRA VISTA   SUNNY     60  23  24 NW8       30.07R
DOUGLAS        SUNNY     62  25  24 N9G22     30.04S
SAFFORD        SUNNY     64  28  25 W17       29.99R
$$

AZZ020-021-025-026-031-291800-
SOUTHWEST ARIZONA

CITY           SKY/WX    TMP DP  RH WIND       PRES   REMARKS
YUMA           MOSUNNY   76  24  14 N15G25    30.04R
$$

CAZ031-033-041-043-047-048-061-291800-
SOUTHERN CALIFORNIA

CITY           SKY/WX    TMP DP  RH WIND       PRES   REMARKS
DOWNTOWN L.A.  SUNNY     72  45  37 CALM      30.04S
L.A. AIRPORT   MOSUNNY   69  52  54 CALM      30.05R
SAN DIEGO      MOSUNNY   69  39  33 CALM      30.06S
BURBANK        SUNNY     69  32  25 SE3       30.05R
ONTARIO        MOSUNNY   73  32  22 W5        30.06S
RIVERSIDE      SUNNY     73  34  23 VRB3      30.06S
PALM SPRINGS   SUNNY     79  26  14 NE5       30.08R
EL CENTRO NAS  MOSUNNY   74  20  13 CALM      30.07S
IMPERIAL       SUNNY     74  36  25 W5        30.05S
BLYTHE         SUNNY     75  25  15 N20G28    30.07R
NEEDLES        MOSUNNY   73  25  16 N30G36    30.10S
$$

NVZ020-UTZ003-291800-
SOUTHERN NEVADA-UTAH

CITY           SKY/WX    TMP DP  RH WIND       PRES   REMARKS
LAS VEGAS      PTSUNNY   64  23  21 CALM      30.18R
SALT LAKE CITY MOSUNNY   47  29  49 CALM      30.26S
$$

NMZ009-TXZ055-291800-
NEW MEXICO-WEST TEXAS

CITY           SKY/WX    TMP DP  RH WIND       PRES   REMARKS
ALBUQUERQUE    CLOUDY    52  39  61 N9        30.02R
EL PASO        MOSUNNY   56  36  47 NE7       29.97R
$$


........................KEY........................
SKY/WX - SKY CONDITION/WEATHER
TMP    - TEMPERATURE IN FAHRENHEIT
DP     - DEW POINT IN FAHRENHEIT
RH     - RELATIVE HUMIDITY IN PERCENT
WIND   - DIRECTION AND SPEED IN MILES PER HOUR (MPH)
VRB    - VARIABLE WIND DIRECTION
PRES   - MEAN SEA LEVEL PRESSURE IN INCHES OF MERCURY
         F - FALLING PRESSURE   R - RISING PRESSURE
         S - STEADY PRESSURE
VSB    - VISIBILITY IN MILES
HX     - HEAT INDEX IN FAHRENHEIT
WCI    - WIND CHILL INDEX IN FAHRENHEIT
TC     - TEMPERATURE IN CELSIUS WHICH IS ALSO KNOWN AS
         TEMPERATURE IN CENTIGRADE
AFB    - AIR FORCE BASE
         LUKE AFB IS LUKE AIR FORCE BASE
         DAVIS-MONTHAN IS DAVIS-MONTHAN AIR FORCE BASE
NAS    - NAVAL AIR STATION
         EL CENTRO NAS IS EL CENTRO NAVAL AIR STATION
N/A    - NOT AVAILABLE





USA.gov is the U.S. government's official web portal to all federal, state and local government web resources and services.